Location: Friaudour
(46.0460°N, 1.2873°E)
Time: 10:35:31
(UTC+00:00)

Cosmos 724 - Pass Details

Date: 14 July 2020
Orbit: 859 x 936 km, 65.6° (Epoch: 05 August)

Event Time Altitude Azimuth Distance (km) Brightness Sun altitude
Exits shadow 00:59:22 37° 228° (SW) 1,319 4.8 -21.0°
Maximum altitude 01:01:46 76° 306° (NW) 893 4.3 -20.9°
Drops below altitude 10° 01:07:37 10° 33° (NNE) 2,527 7.8 -20.6°
Sets 01:10:08 0° 35° (NE) 3,478 8.7 -20.5°
